Concord, NC

5:51 PM EDT on March 27, 2017 (GMT -0400)
Concord Regional

Weather History for KJQF - February, 2013

Change the Weather History Date:

Friday, February 15, 2013

  Actual Average (KCLT) Record (KCLT)
Temperature  
Mean Temperature 45 °F -  
Max Temperature 62 °F 57 °F 80 °F (1989)
Min Temperature 28 °F 36 °F 12 °F (1943)
Degree Days  
Heating Degree Days 20    
Moisture  
Dew Point 31 °F    
Average Humidity 74    
Maximum Humidity 100    
Minimum Humidity 26    
Precipitation  
Precipitation 0.00 in - - ()
Sea Level Pressure  
Sea Level Pressure 30.05 in    
Wind  
Wind Speed 1 mph (NW)    
Max Wind Speed 9 mph    
Max Gust Speed -    
Visibility 9 miles    
Events      
Averages and records for this station are not official NWS values.
T = Trace of Precipitation, MM = Missing Value Source: NWS Daily Summary

Daily Weather History Graph

Daily Weather History Graph

Search for Another Location

Airport or City:

Trip Planner

Search our weather history database for the weather conditions in past years. The results will help you decide how hot, cold, wet, or windy it might be!

Date:

Astronomy

Feb. 15, 2013 Rise Set
Actual Time 7:09 AM EST 6:05 PM EST
Civil Twilight 6:43 AM EST 6:31 PM EST
Nautical Twilight 6:13 AM EST 7:01 PM EST
Astronomical Twilight 5:43 AM EST 7:30 PM EST
Moon 9:58 AM EST (2/15) 11:49 PM EST (2/15)
Length of Visible Light 11h 48m
Length of Day
10h 56m
Waxing Crescent, 30% of the Moon is Illuminated
Feb 15
Waxing Crescent
Feb 17
First Quarter
Feb 25
Full
Mar 4
Last Quarter
Mar 11
New

Hourly Weather History & Observations

Time (EST) Temp. Windchill Dew Point Humidity Pressure Visibility Wind Dir Wind Speed Gust Speed Precip Events Conditions
12:15 AM 33.8 °F - 32.0 °F 93% 30.10 in 10.0 mi Calm Calm - N/A   Clear
12:35 AM 33.8 °F - 32.0 °F 93% 30.11 in 10.0 mi Calm Calm - N/A   Clear
12:55 AM 32.0 °F - 32.0 °F 100% 30.10 in 7.0 mi Calm Calm - N/A   Clear
1:15 AM 32.0 °F - 32.0 °F 100% 30.10 in 7.0 mi Calm Calm - N/A   Clear
1:35 AM 32.0 °F - 30.2 °F 93% 30.10 in 10.0 mi Calm Calm - N/A   Clear
1:55 AM 33.8 °F - 32.0 °F 93% 30.09 in 7.0 mi Calm Calm - N/A   Clear
2:15 AM 32.0 °F - 32.0 °F 100% 30.09 in 10.0 mi Calm Calm - N/A   Clear
2:35 AM 32.0 °F - 30.2 °F 93% 30.09 in 10.0 mi Calm Calm - N/A   Clear
2:55 AM 32.0 °F - 30.2 °F 93% 30.09 in 10.0 mi Calm Calm - N/A   Clear
3:15 AM 32.0 °F - 28.4 °F 87% 30.09 in 10.0 mi Calm Calm - N/A   Clear
3:35 AM 30.2 °F - 28.4 °F 93% 30.08 in 7.0 mi Calm Calm - N/A   Clear
3:55 AM 30.2 °F - 28.4 °F 93% 30.08 in 5.0 mi Calm Calm - N/A   Clear
4:15 AM 30.2 °F - 30.2 °F 100% 30.09 in 5.0 mi Calm Calm - N/A   Clear
4:35 AM 30.2 °F - 28.4 °F 93% 30.09 in 4.0 mi Calm Calm - N/A   Clear
4:55 AM 30.2 °F - 28.4 °F 93% 30.09 in 7.0 mi Calm Calm - N/A   Clear
5:15 AM 30.2 °F - 28.4 °F 93% 30.09 in 5.0 mi Calm Calm - N/A   Clear
5:35 AM 30.2 °F - 28.4 °F 93% 30.09 in 5.0 mi Calm Calm - N/A   Clear
5:55 AM 30.2 °F - 28.4 °F 93% 30.09 in 5.0 mi Calm Calm - N/A   Clear
6:15 AM 30.2 °F - 28.4 °F 93% 30.09 in 5.0 mi Calm Calm - N/A   Clear
6:35 AM 30.2 °F - 28.4 °F 93% 30.10 in 5.0 mi Calm Calm - N/A   Clear
6:55 AM 28.4 °F - 28.4 °F 100% 30.10 in 7.0 mi Calm Calm - N/A   Clear
7:55 AM 30.2 °F - 28.4 °F 93% 30.11 in 10.0 mi Calm Calm - N/A   Clear
8:55 AM 37.4 °F - 35.6 °F 93% 30.13 in 10.0 mi Calm Calm - N/A   Clear
9:55 AM 48.2 °F - 37.4 °F 66% 30.12 in 10.0 mi Calm Calm - N/A   Clear
10:55 AM 55.4 °F - 33.8 °F 44% 30.11 in 10.0 mi WNW 5.8 mph - N/A   Clear
11:55 AM 59.0 °F - 30.2 °F 34% 30.09 in 10.0 mi South 5.8 mph - N/A   Clear
12:55 PM 60.8 °F - 28.4 °F 29% 30.07 in 10.0 mi SW 9.2 mph - N/A   Clear
3:55 PM 62.6 °F - 26.6 °F 26% 29.99 in 10.0 mi WSW 8.1 mph - N/A   Clear
4:55 PM 60.8 °F - 26.6 °F 27% 29.97 in 10.0 mi WSW 9.2 mph - N/A   Clear
6:55 PM 51.8 °F - 30.2 °F 44% 29.97 in 10.0 mi Calm Calm - N/A   Clear
7:55 PM 48.2 °F - 32.0 °F 54% 29.97 in 10.0 mi Calm Calm - N/A   Scattered Clouds
8:15 PM 50.0 °F - 32.0 °F 50% 29.97 in 10.0 mi Calm Calm - N/A   Mostly Cloudy
8:35 PM 50.0 °F - 32.0 °F 50% 29.97 in 10.0 mi Calm Calm - N/A   Mostly Cloudy
8:55 PM 50.0 °F - 32.0 °F 50% 29.97 in 10.0 mi Calm Calm - N/A   Scattered Clouds
9:15 PM 50.0 °F - 32.0 °F 50% 29.98 in 10.0 mi Calm Calm - N/A   Overcast
9:35 PM 50.0 °F - 32.0 °F 50% 29.99 in 10.0 mi WNW 6.9 mph - N/A   Mostly Cloudy
9:55 PM 50.0 °F - 33.8 °F 54% 29.99 in 10.0 mi NNW 6.9 mph - N/A   Mostly Cloudy
10:15 PM 50.0 °F - 33.8 °F 54% 29.99 in 10.0 mi NW 5.8 mph - N/A   Scattered Clouds
10:35 PM 48.2 °F - 33.8 °F 58% 30.00 in 10.0 mi NNW 6.9 mph - N/A   Scattered Clouds
10:55 PM 48.2 °F - 35.6 °F 62% 30.01 in 10.0 mi NNW 9.2 mph - N/A   Mostly Cloudy
11:15 PM 46.4 °F 41.9 °F 35.6 °F 66% 30.00 in 10.0 mi North 9.2 mph - N/A   Mostly Cloudy
11:35 PM 46.4 °F 42.9 °F 35.6 °F 66% 30.00 in 10.0 mi NNW 6.9 mph - N/A   Scattered Clouds
11:55 PM 44.6 °F 40.7 °F 35.6 °F 71% 30.00 in 10.0 mi North 6.9 mph - N/A   Clear